Location: Noordwijk
(52.2400°N, 4.4500°E)
Time: 02:24:39
(UTC+00:00)

VELOX 1 - Pass Details

Date: 04 December 2022
Orbit: 621 x 635 km, 98.4° (Epoch: 29 January)

Event Time Altitude Azimuth Distance (km) Brightness Sun altitude
Exits shadow 16:46:51 15° 58° (ENE) 1,708 ? -10.8°
Maximum altitude 16:48:47 19° 91° (E) 1,488 ? -11.1°
Drops below altitude 10° 16:51:54 10° 137° (SE) 1,989 ? -11.5°
Sets 16:54:38 0° 155° (SSE) 2,889 ? -11.9°
